Hourly Weather Bolshie Savrushi

Today, 4 August, Wednesday

Time Temperature Precipitation Wind Pressure Humidity
00:00 +19°C° 0.2 mm 3 mps 746 mmHg 86%
01:00 +19°C° 0 mm 3 mps 746 mmHg 85%
02:00 +19°C° 0 mm 2 mps 747 mmHg 84%
03:00 +20°C° 0 mm 1 mps 747 mmHg 83%
04:00 +21°C° 0 mm 1 mps 747 mmHg 79%
05:00 +22°C° 0 mm 1 mps 747 mmHg 76%
06:00 +23°C° 0 mm 1 mps 747 mmHg 73%
07:00 +24°C° 0 mm 1 mps 747 mmHg 68%
08:00 +26°C° 0 mm 1 mps 747 mmHg 63%
09:00 +28°C° 0 mm 2 mps 747 mmHg 58%
10:00 +28°C° 0 mm 3 mps 747 mmHg 56%
11:00 +29°C° 0 mm 3 mps 747 mmHg 53%
12:00 +30°C° 0 mm 3 mps 747 mmHg 50%
13:00 +30°C° 0 mm 4 mps 747 mmHg 49%
14:00 +30°C° 0 mm 4 mps 747 mmHg 48%
15:00 +30°C° 0 mm 5 mps 747 mmHg 47%
16:00 +28°C° 0.1 mm 5 mps 747 mmHg 53%
17:00 +27°C° 0.1 mm 5 mps 747 mmHg 59%
18:00 +25°C° 0.1 mm 5 mps 747 mmHg 65%
19:00 +23°C° 0 mm 4 mps 747 mmHg 71%
20:00 +21°C° 0 mm 4 mps 747 mmHg 77%
21:00 +20°C° 0 mm 4 mps 747 mmHg 83%
22:00 +19°C° 0 mm 3 mps 748 mmHg 85%
23:00 +18°C° 0 mm 3 mps 748 mmHg 88%

Tomorrow, 5 August, Thursday

Time Temperature Precipitation Wind Pressure Humidity
00:00 +17°C° 0 mm 2 mps 748 mmHg 91%
01:00 +16°C° 0 mm 2 mps 748 mmHg 91%
02:00 +16°C° 0 mm 2 mps 748 mmHg 90%
03:00 +16°C° 0 mm 2 mps 748 mmHg 90%
04:00 +17°C° 0 mm 2 mps 748 mmHg 85%
05:00 +18°C° 0 mm 3 mps 748 mmHg 80%
06:00 +19°C° 0 mm 3 mps 749 mmHg 74%
07:00 +21°C° 0 mm 3 mps 749 mmHg 65%
08:00 +24°C° 0 mm 3 mps 749 mmHg 56%
09:00 +25°C° 0 mm 4 mps 749 mmHg 48%
10:00 +26°C° 0 mm 4 mps 749 mmHg 46%
11:00 +26°C° 0 mm 5 mps 749 mmHg 44%
12:00 +27°C° 0 mm 5 mps 749 mmHg 42%
13:00 +27°C° 0 mm 5 mps 749 mmHg 41%
14:00 +27°C° 0 mm 4 mps 749 mmHg 40%
15:00 +26°C° 0 mm 4 mps 749 mmHg 39%
16:00 +25°C° 0 mm 4 mps 750 mmHg 44%
17:00 +22°C° 0 mm 4 mps 750 mmHg 50%
18:00 +21°C° 0 mm 4 mps 750 mmHg 55%
19:00 +20°C° 0 mm 3 mps 750 mmHg 56%
20:00 +20°C° 0 mm 3 mps 750 mmHg 56%
21:00 +19°C° 0 mm 3 mps 750 mmHg 56%
22:00 +18°C° 0 mm 3 mps 750 mmHg 58%
23:00 +17°C° 0 mm 3 mps 750 mmHg 59%

Day after tomorrow, 6 August, Friday

Time Temperature Precipitation Wind Pressure Humidity
00:00 +16°C° 0 mm 3 mps 751 mmHg 60%
01:00 +16°C° 0 mm 3 mps 751 mmHg 62%
02:00 +14°C° 0 mm 3 mps 751 mmHg 65%
03:00 +14°C° 0 mm 2 mps 751 mmHg 67%
04:00 +14°C° 0 mm 3 mps 751 mmHg 65%
05:00 +16°C° 0 mm 3 mps 751 mmHg 63%
06:00 +17°C° 0 mm 3 mps 751 mmHg 61%
07:00 +19°C° 0 mm 3 mps 751 mmHg 55%
08:00 +20°C° 0 mm 4 mps 751 mmHg 49%
09:00 +22°C° 0 mm 4 mps 752 mmHg 43%
10:00 +23°C° 0 mm 4 mps 752 mmHg 41%
11:00 +25°C° 0 mm 3 mps 752 mmHg 39%
12:00 +26°C° 0 mm 3 mps 751 mmHg 36%
13:00 +26°C° 0 mm 3 mps 751 mmHg 35%
14:00 +26°C° 0 mm 3 mps 751 mmHg 34%
15:00 +27°C° 0 mm 3 mps 751 mmHg 33%
16:00 +26°C° 0 mm 3 mps 751 mmHg 37%
17:00 +25°C° 0 mm 3 mps 751 mmHg 41%
18:00 +24°C° 0 mm 3 mps 751 mmHg 45%
19:00 +21°C° 0 mm 3 mps 751 mmHg 48%
20:00 +19°C° 0 mm 3 mps 751 mmHg 52%
21:00 +18°C° 0 mm 3 mps 751 mmHg 55%
22:00 +18°C° 0 mm 2 mps 752 mmHg 55%
23:00 +18°C° 0 mm 2 mps 752 mmHg 54%

7 August, Saturday

Time Temperature Precipitation Wind Pressure Humidity
00:00 +17°C° 0 mm 2 mps 752 mmHg 54%
01:00 +18°C° 0 mm 2 mps 752 mmHg 53%
02:00 +18°C° 0 mm 2 mps 752 mmHg 52%
03:00 +18°C° 0 mm 2 mps 752 mmHg 52%
04:00 +18°C° 0 mm 2 mps 752 mmHg 52%
05:00 +18°C° 0 mm 2 mps 752 mmHg 53%
06:00 +18°C° 0 mm 2 mps 752 mmHg 53%
07:00 +19°C° 0 mm 3 mps 752 mmHg 51%
08:00 +20°C° 0 mm 3 mps 753 mmHg 49%
09:00 +21°C° 0 mm 3 mps 753 mmHg 46%
10:00 +22°C° 0 mm 3 mps 753 mmHg 44%
11:00 +24°C° 0 mm 3 mps 753 mmHg 41%
12:00 +26°C° 0 mm 3 mps 753 mmHg 38%
13:00 +26°C° 0 mm 3 mps 752 mmHg 37%
14:00 +27°C° 0 mm 3 mps 752 mmHg 36%
15:00 +27°C° 0 mm 4 mps 752 mmHg 36%
16:00 +26°C° 0 mm 4 mps 752 mmHg 40%
17:00 +25°C° 0 mm 5 mps 752 mmHg 45%
18:00 +22°C° 0 mm 5 mps 752 mmHg 50%
19:00 +21°C° 0 mm 5 mps 752 mmHg 54%
20:00 +20°C° 0 mm 5 mps 752 mmHg 58%
21:00 +19°C° 0 mm 5 mps 752 mmHg 62%
22:00 +18°C° 0 mm 4 mps 752 mmHg 63%
23:00 +18°C° 0 mm 4 mps 753 mmHg 64%

8 August, Sunday

Time Temperature Precipitation Wind Pressure Humidity
00:00 +18°C° 0 mm 3 mps 753 mmHg 65%
01:00 +17°C° 0 mm 3 mps 753 mmHg 65%
02:00 +17°C° 0 mm 3 mps 752 mmHg 65%
03:00 +17°C° 0 mm 3 mps 752 mmHg 64%
04:00 +18°C° 0 mm 3 mps 753 mmHg 63%
05:00 +18°C° 0 mm 3 mps 753 mmHg 62%
06:00 +19°C° 0 mm 2 mps 753 mmHg 61%
07:00 +21°C° 0 mm 3 mps 753 mmHg 55%
08:00 +24°C° 0 mm 3 mps 753 mmHg 49%
09:00 +26°C° 0 mm 3 mps 753 mmHg 43%
10:00 +27°C° 0 mm 3 mps 753 mmHg 40%
11:00 +28°C° 0 mm 2 mps 753 mmHg 38%
12:00 +29°C° 0 mm 2 mps 753 mmHg 35%
13:00 +29°C° 0 mm 2 mps 752 mmHg 35%
14:00 +30°C° 0 mm 2 mps 752 mmHg 36%
15:00 +30°C° 0 mm 2 mps 752 mmHg 36%
16:00 +28°C° 0 mm 3 mps 752 mmHg 42%
17:00 +26°C° 0 mm 4 mps 752 mmHg 48%
18:00 +25°C° 0 mm 5 mps 753 mmHg 54%
19:00 +22°C° 0 mm 5 mps 753 mmHg 61%
20:00 +19°C° 0 mm 5 mps 753 mmHg 67%
21:00 +16°C° 0 mm 5 mps 753 mmHg 74%
22:00 +17°C° 0 mm 4 mps 753 mmHg 74%
23:00 +15°C° 0 mm 4 mps 753 mmHg 74%

9 August, Monday

Time Temperature Precipitation Wind Pressure Humidity
00:00 +14°C° 0 mm 3 mps 753 mmHg 74%
01:00 +14°C° 0 mm 3 mps 753 mmHg 71%
02:00 +14°C° 0 mm 3 mps 753 mmHg 68%
03:00 +14°C° 0 mm 3 mps 753 mmHg 65%
04:00 +15°C° 0 mm 4 mps 753 mmHg 63%
05:00 +15°C° 0 mm 4 mps 753 mmHg 60%
06:00 +17°C° 0 mm 4 mps 753 mmHg 57%
07:00 +19°C° 0 mm 4 mps 753 mmHg 52%
08:00 +20°C° 0 mm 5 mps 753 mmHg 46%
09:00 +22°C° 0 mm 5 mps 753 mmHg 40%
10:00 +23°C° 0 mm 5 mps 753 mmHg 36%
11:00 +25°C° 0 mm 4 mps 753 mmHg 32%
12:00 +26°C° 0 mm 4 mps 753 mmHg 29%
13:00 +27°C° 0 mm 4 mps 753 mmHg 27%
14:00 +27°C° 0 mm 4 mps 753 mmHg 26%
15:00 +27°C° 0 mm 4 mps 753 mmHg 24%
16:00 +26°C° 0 mm 4 mps 753 mmHg 27%
17:00 +25°C° 0 mm 4 mps 753 mmHg 31%
18:00 +23°C° 0 mm 4 mps 753 mmHg 34%
19:00 +21°C° 0 mm 4 mps 753 mmHg 40%
20:00 +19°C° 0 mm 3 mps 753 mmHg 46%
21:00 +17°C° 0 mm 3 mps 753 mmHg 51%
22:00 +17°C° 0 mm 3 mps 753 mmHg 58%
23:00 +16°C° 0 mm 3 mps 753 mmHg 65%
Show more

We Need Your Consent

Meteoprog and our Service Providers may store and access personal data such as cookies, device identifiers or other similar technologies on your device and process such data to personalise content and ads, as well as provide social media features and to analyse the traffic.

  • Store and/or access information on your device

    Cookies, device identifiers or other information can be stored or accessed on your device for the purposes indicated above.

  • Personalised ads and content, ad and content measurement, audience insights, and products development

    Ads and content can be personalised based on a profile. More data can be added to better personalise ads and content. Ad and content performance can be measured. Insights about the audience who saw the ads and content can be derived. Such data can be used to develop or improve user’s experience, systems and software.

By clicking ‘I Agree’ you will allow the use of indicated cookies, device identifiers, web beacons or other similar technologies. Your settings can be changed in the browser on your device.

For certain purposes, legitimate interests may be relied on, rather than consent. You can read more about this in our Privacy and Cookie Policy.